Jordan, MT

8:38 PM MST on February 22, 2017 (GMT -0700)
Jordan

Weather History for KJDN - September, 2012

Change the Weather History Date:

Thursday, September 13, 2012

  Actual Average Record
Temperature  
Mean Temperature 55 °F 58 °F  
Max Temperature 78 °F 75 °F 96 °F (1908)
Min Temperature 31 °F 42 °F 21 °F (1949)
Degree Days  
Heating Degree Days 10 8  
Month to date heating degree days 64 73  
Since 1 July heating degree days 96 138  
Cooling Degree Days 0 1  
Month to date cooling degree days 26 20  
Year to date cooling degree days 724 413  
Growing Degree Days 5 (Base 50)    
Moisture  
Dew Point 24 °F    
Average Humidity 30    
Maximum Humidity 44    
Minimum Humidity 16    
Precipitation  
Precipitation 0.00 in 0.04 in 0.74 in (1967)
Month to date precipitation 0.03 0.50  
Year to date precipitation 5.75 10.42  
Snow  
Snow 0.00 in - - ()
Month to date snowfall 0.0  
Since 1 July snowfall 0.0  
Since 1 September snowfall 0.0  
Snow Depth 0.00 in    
Sea Level Pressure  
Sea Level Pressure 30.34 in    
Wind  
Wind Speed 7 mph (NW)    
Max Wind Speed 20 mph    
Max Gust Speed 28 mph    
T = Trace of Precipitation, MM = Missing Value Source: NWS Daily Summary

Daily Weather History Graph

Daily Weather History Graph

Search for Another Location

Airport or City:

Trip Planner

Search our weather history database for the weather conditions in past years. The results will help you decide how hot, cold, wet, or windy it might be!

Date:

Astronomy

Sep. 13, 2012 Rise Set
Actual Time 6:43 AM MDT 7:22 PM MDT
Civil Twilight 6:12 AM MDT 7:53 PM MDT
Nautical Twilight 5:35 AM MDT 8:30 PM MDT
Astronomical Twilight 4:57 AM MDT 9:08 PM MDT
Moon 3:58 AM MDT (9/13) 5:52 PM MDT (9/13)
Length of Visible Light 13h 41m
Length of Day
12h 39m
Waning Crescent, 7% of the Moon is Illuminated
Sep 13
Waning Crescent
Sep 15
New
Sep 22
First Quarter
Sep 29
Full
Oct 8
Last Quarter

Hourly Weather History & Observations

Time (MDT) Temp. Windchill Dew Point Humidity Pressure Visibility Wind Dir Wind Speed Gust Speed Precip Events Conditions
12:48 AM 34.0 °F 29.8 °F 14.0 °F 44% 30.33 in - West 4.6 mph - N/A   Unknown
1:48 AM 35.1 °F 30.1 °F 14.0 °F 42% 30.33 in - WNW 5.8 mph - N/A   Unknown
2:48 AM 35.1 °F 31.0 °F 14.0 °F 42% 30.33 in - WNW 4.6 mph - N/A   Unknown
3:48 AM 35.1 °F - 14.0 °F 42% 30.32 in - Calm Calm - N/A   Unknown
4:48 AM 33.1 °F - 14.0 °F 46% 30.32 in - Calm Calm - N/A   Unknown
5:48 AM 33.1 °F 27.7 °F 14.0 °F 46% 30.32 in - West 5.8 mph - N/A   Unknown
6:48 AM 33.1 °F 27.7 °F 14.0 °F 46% 30.35 in - West 5.8 mph - N/A   Unknown
7:48 AM 41.0 °F 39.0 °F 17.1 °F 38% 30.37 in - West 3.5 mph - N/A   Unknown
8:48 AM 55.0 °F - 19.0 °F 24% 30.35 in - West 11.5 mph - N/A   Unknown
9:48 AM 64.9 °F - 19.9 °F 18% 30.35 in - West 12.7 mph - N/A   Unknown
10:48 AM 69.1 °F - 21.9 °F 17% 30.36 in - WNW 16.1 mph - N/A   Unknown
11:48 AM 72.0 °F - 26.1 °F 18% 30.36 in - NW 11.5 mph 23.0 mph N/A   Unknown
12:48 PM 73.9 °F - 30.9 °F 21% 30.36 in - North 15.0 mph 23.0 mph N/A   Unknown
1:48 PM 73.9 °F - 30.0 °F 20% 30.35 in - NW 13.8 mph 19.6 mph N/A   Unknown
2:48 PM 77.0 °F - 30.9 °F 19% 30.33 in - Variable 6.9 mph 20.7 mph N/A   Unknown
3:48 PM 77.0 °F - 32.0 °F 19% 30.33 in - WNW 15.0 mph 24.2 mph N/A   Unknown
4:48 PM 77.0 °F - 32.0 °F 19% 30.33 in - NW 13.8 mph 23.0 mph N/A   Unknown
5:48 PM 75.9 °F - 32.0 °F 20% 30.32 in - North 12.7 mph - N/A   Unknown
6:48 PM 73.9 °F - 32.0 °F 21% 30.34 in - NNW 6.9 mph - N/A   Unknown
7:48 PM 60.1 °F - 30.0 °F 32% 30.35 in - North 3.5 mph - N/A   Unknown
8:48 PM 54.0 °F - 28.9 °F 38% 30.35 in - ENE 3.5 mph - N/A   Unknown
9:48 PM 51.1 °F - 28.0 °F 41% 30.35 in - Calm Calm - N/A   Unknown
10:48 PM 53.1 °F - 30.0 °F 41% 30.35 in - East 4.6 mph - N/A   Unknown
11:48 PM 52.0 °F - 30.9 °F 45% 30.34 in - ENE 4.6 mph - N/A   Unknown